Baker City Municipal Airport Baker City US
ICAO: KBKE
IATA: BKE
Category: Medium
Scheduled Services: No

Elevation: 3373 ft
TransAlt. 18000 ft.

Airport Communications:
ASOS:134.275
SALT LAKE CITY CNTR:128.05
CTAF/UNICOM:123

KBKE Zoom In..

If you have problems with the map follow the link
https://www.worldairports.se/pages/airport.php?
ICAO=KBKE

Runways:

(A) RW 08 length 3670 ft width 140 ft
---- / hdg 81

(B) RW 13 length 5085 ft width 100 ft
---- / hdg 126

(C) RW 17 length 4359 ft width 75 ft
---- / hdg 165

(D) RW 26 length 3670 ft width 140 ft
---- / hdg 261

(E) RW 31 length 5085 ft width 100 ft
---- / hdg 306

(F) RW 35 length 4359 ft width 75 ft
---- / hdg 345

Location; KBKE
Day. 22 / Time. 13.53 Zulu
* Altimeter: 30.10
* Temperature: -02° c. -28.4°f.
* Wind from: 110° Speed 04 kn.
Dewpoint: -03° c.
Visibility: 3/4 Statute Miles.
Conditions: Mist.

KBKE 221353Z AUTO 11004KT 3/4SM BR VV003 M02/M03 A3010 RMK AO2 SLP217 T10171033


Wind From 110°
Speed 04 kn.

 
 
jpsmedia worldairports.se 2020   terms of use